| time (UTC) | temp C | wind direction | speed KPH | gust KPH | rain 1hr cm | rain 24hr cm | rain mn cm | humidity % | barometer mb |
| 20260505194300 | 16 | 277 | 0.0 | 3.2 | 0.00 | 0.00 | 0.00 | 80 | 1016.6 |
| 20260505193300 | 15 | 219 | 0.0 | 3.2 | 0.00 | 0.00 | 0.00 | 82 | 1016.6 |
| 20260505192300 | 15 | 231 | 0.0 | 4.8 | 0.00 | 0.00 | 0.00 | 82 | 1016.6 |
| 20260505191300 | 15 | 234 | 0.0 | 3.2 | 0.00 | 0.00 | 0.00 | 82 | 1016.6 |
| 20260505184300 | 14 | 271 | 0.0 | 4.8 | 0.00 | 0.00 | 0.00 | 83 | 1016.6 |
| 20260505183300 | 14 | 257 | 0.0 | 8.0 | 0.00 | 0.00 | 0.00 | 85 | 1016.6 |
| 20260505182300 | 14 | 247 | 0.0 | 0.0 | 0.00 | 0.00 | 0.00 | 85 | 1016.6 |
| 20260505180300 | 13 | 259 | 0.0 | 6.4 | 0.00 | 0.00 | 0.00 | 86 | 1016.6 |
| 20260505175300 | 13 | 183 | 0.0 | 1.6 | 0.00 | 0.00 | 0.00 | 87 | 1016.6 |
| 20260505174300 | 13 | 261 | 0.0 | 1.6 | 0.00 | 0.00 | 0.00 | 88 | 1016.6 |
| 20260505172300 | 12 | 259 | 0.0 | 0.0 | 0.00 | 0.00 | 0.00 | 89 | 1016.6 |
| 20260505171300 | 12 | 266 | 0.0 | 0.0 | 0.00 | 0.00 | 0.00 | 89 | 1016.6 |
| 20260505170300 | 12 | 267 | 0.0 | 0.0 | 0.00 | 0.00 | 0.00 | 89 | 1016.6 |
| 20260505165300 | 12 | 267 | 0.0 | 0.0 | 0.00 | 0.00 | 0.00 | 89 | 1016.6 |
| 20260505163300 | 12 | 266 | 0.0 | 0.0 | 0.00 | 0.00 | 0.00 | 90 | 1016.6 |
| 20260505162300 | 12 | 360 | 0.0 | 0.0 | 0.00 | 0.00 | 0.00 | 89 | 1016.6 |
| 20260505161300 | 11 | 273 | 0.0 | 0.0 | 0.00 | 0.00 | 0.00 | 89 | 1016.6 |
| 20260505160300 | 11 | 360 | 0.0 | 0.0 | 0.00 | 0.00 | 0.00 | 90 | 1016.6 |
| 20260505153300 | 11 | 360 | 0.0 | 0.0 | 0.00 | 0.00 | 0.00 | 90 | 1016.6 |
| 20260505152300 | 11 | 360 | 0.0 | 0.0 | 0.00 | 0.00 | 0.00 | 90 | 1016.6 |
| 20260505151300 | 11 | 360 | 0.0 | 0.0 | 0.00 | 0.00 | 0.00 | 90 | 1016.6 |
| 20260505150300 | 11 | 360 | 0.0 | 0.0 | 0.00 | 0.00 | 0.00 | 90 | 1016.6 |
| 20260505140300 | 11 | 360 | 0.0 | 0.0 | 0.00 | 0.00 | 0.00 | 89 | 1016.3 |
| 20260505130300 | 10 | 360 | 0.0 | 0.0 | 0.00 | 0.00 | 0.00 | 88 | 1015.9 |
| 20260505124300 | 10 | 360 | 0.0 | 0.0 | 0.00 | 0.00 | 0.00 | 88 | 1015.9 |
| 20260505123300 | 10 | 360 | 0.0 | 0.0 | 0.00 | 0.00 | 0.00 | 88 | 1015.9 |
| 20260505121300 | 11 | 360 | 0.0 | 0.0 | 0.00 | 0.00 | 0.00 | 88 | 1015.6 |
| 20260505120300 | 11 | 360 | 0.0 | 0.0 | 0.00 | 0.00 | 0.00 | 88 | 1015.6 |
| 20260505115300 | 11 | 360 | 0.0 | 0.0 | 0.00 | 0.00 | 0.00 | 88 | 1015.6 |
| 20260505114300 | 11 | 360 | 0.0 | 0.0 | 0.00 | 0.00 | 0.00 | 88 | 1015.6 |
| 20260505113300 | 11 | 360 | 0.0 | 3.2 | 0.00 | 0.00 | 0.00 | 88 | 1015.6 |
| 20260505112300 | 11 | 360 | 0.0 | 3.2 | 0.00 | 0.00 | 0.00 | 88 | 1015.6 |
| 20260505111300 | 11 | 360 | 0.0 | 0.0 | 0.00 | 0.00 | 0.00 | 88 | 1015.6 |
| 20260505110300 | 11 | 360 | 0.0 | 0.0 | 0.00 | 0.00 | 0.00 | 88 | 1015.6 |
| 20260505101300 | 11 | 360 | 0.0 | 3.2 | 0.00 | 0.00 | 0.00 | 87 | 1015.2 |
| 20260505100300 | 11 | 360 | 0.0 | 3.2 | 0.00 | 0.00 | 0.00 | 87 | 1015.2 |
| 20260505095300 | 11 | 360 | 0.0 | 3.2 | 0.00 | 0.00 | 0.00 | 87 | 1015.2 |
| 20260505094300 | 11 | 360 | 0.0 | 4.8 | 0.00 | 0.00 | 0.00 | 86 | 1015.2 |
| 20260505093300 | 11 | 360 | 0.0 | 6.4 | 0.00 | 0.00 | 0.00 | 87 | 1015.2 |
| 20260505092300 | 11 | 360 | 3.2 | 6.4 | 0.00 | 0.00 | 0.00 | 86 | 1015.2 |
| 20260505091300 | 11 | 360 | 0.0 | 6.4 | 0.00 | 0.00 | 0.00 | 86 | 1015.2 |
| 20260505090300 | 11 | 360 | 0.0 | 0.0 | 0.00 | 0.00 | 0.00 | 86 | 1015.2 |
| 20260505085300 | 11 | 360 | 0.0 | 1.6 | 0.00 | 0.00 | 0.00 | 86 | 1014.9 |
| 20260505084300 | 11 | 360 | 0.0 | 0.0 | 0.00 | 0.00 | 0.00 | 85 | 1014.9 |
| 20260505083300 | 11 | 360 | 0.0 | 1.6 | 0.00 | 0.00 | 0.00 | 85 | 1015.2 |
| 20260505082300 | 11 | 360 | 0.0 | 4.8 | 0.00 | 0.00 | 0.00 | 85 | 1015.2 |
| 20260505081300 | 12 | 360 | 1.6 | 8.0 | 0.00 | 0.00 | 0.00 | 85 | 1015.2 |
| 20260505080300 | 12 | 360 | 0.0 | 6.4 | 0.00 | 0.00 | 0.00 | 84 | 1015.2 |
| 20260505075300 | 12 | 360 | 0.0 | 0.0 | 0.00 | 0.00 | 0.00 | 84 | 1015.2 |
| 20260505074300 | 12 | 360 | 0.0 | 6.4 | 0.00 | 0.00 | 0.00 | 84 | 1015.2 |
| 20260505072300 | 12 | 360 | 0.0 | 8.0 | 0.00 | 0.00 | 0.00 | 84 | 1015.2 |
| 20260505071300 | 12 | 360 | 0.0 | 4.8 | 0.00 | 0.00 | 0.00 | 83 | 1015.2 |
| 20260505070300 | 12 | 260 | 0.0 | 9.7 | 0.00 | 0.00 | 0.00 | 83 | 1014.9 |
| 20260505064300 | 12 | 360 | 0.0 | 3.2 | 0.00 | 0.00 | 0.00 | 83 | 1014.9 |
| 20260505063300 | 12 | 273 | 0.0 | 0.0 | 0.00 | 0.00 | 0.00 | 83 | 1014.9 |
| 20260505062300 | 12 | 360 | 0.0 | 0.0 | 0.00 | 0.00 | 0.00 | 83 | 1014.9 |
| 20260505061300 | 12 | 360 | 0.0 | 0.0 | 0.00 | 0.00 | 0.00 | 83 | 1014.9 |
| 20260505060300 | 12 | 360 | 0.0 | 0.0 | 0.00 | 0.00 | 0.00 | 83 | 1014.9 |
| 20260505055300 | 12 | 282 | 0.0 | 0.0 | 0.00 | 0.00 | 0.00 | 82 | 1014.9 |
| 20260505054300 | 12 | 360 | 0.0 | 0.0 | 0.00 | 0.00 | 0.00 | 82 | 1014.9 |
| 20260505053300 | 12 | 306 | 0.0 | 4.8 | 0.00 | 0.00 | 0.00 | 82 | 1014.6 |
| 20260505052300 | 12 | 266 | 0.0 | 3.2 | 0.00 | 0.00 | 0.00 | 81 | 1014.6 |
| 20260505051300 | 13 | 360 | 0.0 | 0.0 | 0.00 | 0.00 | 0.00 | 81 | 1014.6 |
| 20260505050300 | 13 | 279 | 0.0 | 9.7 | 0.00 | 0.00 | 0.00 | 81 | 1014.6 |
| 20260505041300 | 13 | 271 | 0.0 | 9.7 | 0.00 | 0.00 | 0.00 | 79 | 1013.9 |
| 20260505040300 | 13 | 275 | 0.0 | 9.7 | 0.00 | 0.00 | 0.00 | 78 | 1013.9 |
| 20260505035300 | 14 | 280 | 1.6 | 16.1 | 0.00 | 0.00 | 0.00 | 78 | 1013.5 |
| 20260505034300 | 14 | 264 | 0.0 | 9.7 | 0.00 | 0.00 | 0.00 | 77 | 1013.5 |
| 20260505033300 | 14 | 360 | 3.2 | 17.7 | 0.00 | 0.00 | 0.00 | 77 | 1013.5 |
| 20260505032300 | 15 | 275 | 0.0 | 16.1 | 0.00 | 0.00 | 0.00 | 76 | 1013.2 |
| 20260505030300 | 15 | 291 | 0.0 | 14.5 | 0.00 | 0.00 | 0.00 | 73 | 1012.9 |
| 20260505025300 | 16 | 300 | 6.4 | 16.1 | 0.00 | 0.00 | 0.00 | 72 | 1012.5 |
| 20260505024300 | 16 | 273 | 0.0 | 14.5 | 0.00 | 0.00 | 0.00 | 70 | 1012.5 |
| 20260505023300 | 17 | 286 | 0.0 | 17.7 | 0.00 | 0.00 | 0.00 | 69 | 1012.2 |
| 20260505022300 | 18 | 267 | 4.8 | 17.7 | 0.00 | 0.00 | 0.00 | 68 | 1012.2 |
| 20260505021300 | 18 | 270 | 3.2 | 16.1 | 0.00 | 0.00 | 0.00 | 67 | 1012.2 |
| 20260505020300 | 18 | 284 | 0.0 | 17.7 | 0.00 | 0.00 | 0.00 | 66 | 1012.2 |
| 20260505015300 | 19 | 271 | 0.0 | 9.7 | 0.00 | 0.00 | 0.00 | 66 | 1012.2 |
| 20260505014300 | 19 | 281 | 0.0 | 12.9 | 0.00 | 0.00 | 0.00 | 65 | 1012.2 |
| 20260505013300 | 20 | 292 | 0.0 | 19.3 | 0.00 | 0.00 | 0.00 | 66 | 1011.9 |
| 20260505012300 | 20 | 249 | 1.6 | 19.3 | 0.00 | 0.00 | 0.00 | 65 | 1011.9 |
| 20260505011300 | 20 | 311 | 0.0 | 17.7 | 0.00 | 0.00 | 0.00 | 65 | 1012.2 |
| 20260505010300 | 20 | 285 | 3.2 | 19.3 | 0.00 | 0.00 | 0.00 | 65 | 1012.2 |
| 20260505005300 | 20 | 270 | 0.0 | 22.5 | 0.00 | 0.00 | 0.00 | 64 | 1012.2 |
| 20260505002300 | 20 | 248 | 0.0 | 17.7 | 0.00 | 0.00 | 0.00 | 65 | 1011.9 |
| 20260505001300 | 20 | 314 | 0.0 | 14.5 | 0.00 | 0.00 | 0.00 | 65 | 1011.9 |
| 20260505000300 | 20 | 253 | 0.0 | 17.7 | 0.00 | 0.00 | 0.00 | 66 | 1012.2 |
| 20260504235300 | 20 | 269 | 0.0 | 11.3 | 0.00 | 0.00 | 0.00 | 65 | 1012.2 |
| 20260504234300 | 20 | 308 | 0.0 | 3.2 | 0.00 | 0.00 | 0.00 | 64 | 1012.2 |
| 20260504233300 | 20 | 246 | 0.0 | 12.9 | 0.00 | 0.00 | 0.00 | 66 | 1012.2 |
| 20260504232300 | 20 | 284 | 0.0 | 12.9 | 0.00 | 0.00 | 0.00 | 67 | 1012.2 |
| 20260504231300 | 20 | 283 | 0.0 | 6.4 | 0.00 | 0.00 | 0.00 | 68 | 1012.5 |
| 20260504225300 | 19 | 292 | 0.0 | 12.9 | 0.00 | 0.00 | 0.00 | 69 | 1012.9 |
| 20260504224300 | 19 | 269 | 0.0 | 12.9 | 0.00 | 0.00 | 0.00 | 69 | 1012.9 |
| 20260504223300 | 19 | 261 | 0.0 | 12.9 | 0.00 | 0.00 | 0.00 | 71 | 1013.2 |
| 20260504222300 | 18 | 259 | 1.6 | 12.9 | 0.00 | 0.00 | 0.00 | 72 | 1013.2 |
| 20260504221300 | 18 | 244 | 0.0 | 17.7 | 0.00 | 0.00 | 0.00 | 73 | 1013.5 |
| 20260504220300 | 18 | 252 | 1.6 | 17.7 | 0.00 | 0.00 | 0.00 | 74 | 1013.5 |
| 20260504214300 | 17 | 246 | 0.0 | 4.8 | 0.00 | 0.00 | 0.00 | 75 | 1013.9 |
| 20260504213300 | 17 | 234 | 0.0 | 4.8 | 0.00 | 0.00 | 0.00 | 76 | 1013.9 |
| 20260504211300 | 16 | 205 | 0.0 | 6.4 | 0.00 | 0.00 | 0.00 | 77 | 1013.9 |
| 20260504210300 | 16 | 259 | 0.0 | 3.2 | 0.00 | 0.00 | 0.00 | 78 | 1013.9 |
| 20260504204300 | 16 | 360 | 0.0 | 9.7 | 0.00 | 0.00 | 0.00 | 79 | 1014.2 |
| 20260504203300 | 15 | 360 | 0.0 | 1.6 | 0.00 | 0.00 | 0.00 | 79 | 1014.2 |
| 20260504202300 | 15 | 360 | 0.0 | 14.5 | 0.00 | 0.00 | 0.00 | 80 | 1014.2 |
| 20260504201300 | 15 | 360 | 0.0 | 6.4 | 0.00 | 0.00 | 0.00 | 79 | 1014.2 |